Flag for Liberia Weather past 2 weeks in Gbarnga, Liberia

Now
77 °F

Passing clouds.


Feels Like: 78 °F
Forecast: 70 / 91 °F
Wind: No wind

Location: Roberts Field

Current Time: Apr 28, 2015 at 3:06:20 AM

Latest Report: Apr 28, 2015 at 2:00 AM


Visibility: N/A

Pressure: 29.86 "Hg

Humidity: 94%

Dew point: 75 °F

Location of GbarngaLocation

Historic Weather in Gbarnga — Graph

°F

Gbarnga temperature yesterday

Maximum temperature yesterday: 90 °F (at 12:30 PM)
Minimum temperature yesterday: 75 °F (at 4:30 AM)
Average temperature yesterday: 83 °F

Past Weeks' High & Low Weather Summary

 TemperatureHumidityPressure
High93 °F (Apr 21, 1:30 PM)100% (Apr 18, 7:00 AM)30.01 "Hg (Apr 18, 7:00 AM)
Low73 °F (Apr 13, 6:00 AM)55% (Apr 17, 5:00 PM)29.77 "Hg (Apr 20, 4:30 PM)
Average83 °F83%29.88 "Hg
* Reported Apr 13 6:00 AM — Apr 28 2:00 AM, Gbarnga, Weather by CustomWeather, © 2015

Note: Actual official high and low records may vary slightly from our data, if they occured in-between our weather recording intervals... More about our weather records

Advertising

Gbarnga weather history for previous 24 hours

 ConditionsComfort  
Time TempWeatherWind HumidityBarometerVisibility
2:00 AM
Tue, Apr 28
77 °FPassing clouds.No wind94%29.86 "HgN/A
1:30 AM77 °FPassing clouds.No wind94%29.89 "HgN/A
1:00 AM79 °FPassing clouds.No wind94%29.89 "HgN/A
12:30 AM79 °FPassing clouds.No wind94%29.89 "HgN/A
12:00 AM79 °FPassing clouds.No wind94%29.89 "HgN/A
11:30 PM
Mon, Apr 27
79 °FPassing clouds.No wind94%29.89 "HgN/A
11:00 PM79 °FPassing clouds.No wind94%29.89 "HgN/A
10:30 PM79 °FPassing clouds.3 mph94%29.89 "HgN/A
10:00 PM79 °FPassing clouds.No wind94%29.89 "HgN/A
9:30 PM81 °FPassing clouds.No wind89%29.89 "HgN/A
9:00 PM81 °FPassing clouds.No wind89%29.89 "HgN/A
8:30 PM81 °FPassing clouds.No wind89%29.86 "HgN/A
8:00 PM81 °FPassing clouds.3 mph89%29.86 "HgN/A
7:30 PM81 °FScattered clouds.5 mph89%29.86 "HgN/A
7:00 PM82 °FScattered clouds.3 mph84%29.83 "HgN/A
6:30 PM84 °FBroken clouds.7 mph79%29.83 "HgN/A
6:00 PM84 °FBroken clouds.8 mph79%29.80 "HgN/A
5:30 PM84 °FPartly sunny.9 mph79%29.80 "HgN/A
5:00 PM84 °FPartly sunny.8 mph79%29.80 "HgN/A
4:30 PM86 °FPartly sunny.8 mph75%29.80 "HgN/A
4:00 PM86 °FPartly sunny.6 mph75%29.80 "HgN/A
3:30 PM86 °FPartly sunny.12 mph75%29.80 "HgN/A
3:00 PM88 °FPartly sunny.8 mph70%29.83 "HgN/A
2:30 PM88 °FScattered clouds.9 mph66%29.83 "HgN/A
2:00 PM88 °FPartly sunny.7 mph66%29.83 "HgN/A
1:30 PM88 °FPartly sunny.12 mph66%29.86 "HgN/A
1:00 PM90 °FPartly sunny.7 mph67%29.89 "HgN/A
12:30 PM90 °FPartly sunny.6 mph67%29.89 "HgN/A
12:00 PM88 °FPartly sunny.10 mph66%29.92 "HgN/A
11:30 AM86 °FPartly sunny.3 mph75%29.95 "HgN/A
11:00 AM88 °FPartly sunny.7 mph70%29.95 "HgN/A
10:30 AM86 °FScattered clouds.7 mph75%29.95 "HgN/A
10:00 AM84 °FScattered clouds.8 mph74%29.95 "HgN/A
9:30 AM82 °FScattered clouds.7 mph79%29.95 "HgN/A
6:00 AM75 °FPassing clouds.5 mph94%29.89 "Hg6 mi
5:30 AM75 °FPassing clouds.5 mph94%29.89 "Hg6 mi
5:00 AM75 °FPassing clouds.6 mph94%29.89 "Hg6 mi
4:30 AM75 °FPassing clouds.6 mph94%29.89 "Hg6 mi
Weather by CustomWeather, © 2015

See weather overviewHow to use our weather pages